AirNav   Air Wisconsin pilot careers
 
 817 users online  

MO75 Brownsberger Airport
Montrose, Missouri, USA

GOING TO MONTROSE?


FAA INFORMATION EFFECTIVE 04 JANUARY 2018

Location

FAA Identifier: MO75
Lat/Long: 38-18-18.0810N / 094-03-11.7940W
38-18.301350N / 094-03.196567W
38.3050225 / -94.0532761
(estimated)
Elevation: 794 ft. / 242 m (estimated)
Variation: 05E (1985)
From city: 8 miles NW of MONTROSE, MO
Time zone: UTC -6 (UTC -5 during Daylight Saving Time)
Zip code: 64770

Airport Operations

Airport use: Private use. Permission required prior to landing
Activation date: 05/1989
Control tower: no
ARTCC: KANSAS CITY CENTER
FSS: COLUMBIA FLIGHT SERVICE STATION
Attendance: MON-SAT DUSK-DAWN
Wind indicator: yes
Segmented circle: no

Airport Communications

WX AWOS-3 at GLY (18 nm E): 120.475 (660-885-3851)

Nearby radio navigation aids

VOR radial/distance  VOR name  Freq  Var
BUMr077/20.6BUTLER VORTAC115.9007E

 
NDB name  Hdg/Dist  Freq  Var  ID
GOLDEN VALLEY258/17.638801EGLY --. .-.. -.--

Airport Services

Runway Information

Runway 18/36

Dimensions: 1300 x 50 ft. / 396 x 15 m
Surface: turf
RUNWAY 18  RUNWAY 36
Traffic pattern: leftleft

Airport Ownership and Management from official FAA records

Ownership: Privately-owned
Owner: WALTER BROWNSBERGER
15015 MELROSE
OVERLAND PARK, KS 66221
Phone 913-897-4828
Manager: WALTER BROWNSBERGER
15015 MELROSE
OVERLAND PARK, KS 66221
Phone 913-897-4828

Airport Operational Statistics

Aircraft based on the field: 1
Single engine airplanes: 1
    

Instrument Procedures

There are no published instrument procedures at MO75.

Some nearby airports with instrument procedures:

KBUM - Butler Memorial Airport (14 nm W)
KGLY - Clinton Regional Airport (18 nm E)
KLRY - Lawrence Smith Memorial Airport (23 nm NW)
KNVD - Nevada Municipal Airport (30 nm SW)
KRCM - Skyhaven Airport (31 nm N)
 
Loc | Ops | Rwys | IFR | FBO | Links
Com | Nav | Svcs | Stats | Notes

Kansas City Aviation Department
 
Area around MO75 (Brownsberger Airport)
 
Road maps at: MapQuest Bing Google
 
Aerial photo
No photo
 
Sectional chart

 
Airport distance calculator
Flying to Brownsberger Airport? Find the distance to fly.

From to MO75

Sunrise and sunset
Times for 21-Jan-2018
 Local
(UTC-6)
 Zulu
(UTC)
Morning civil twilight07:0213:02
Sunrise07:3013:30
Sunset17:2523:25
Evening civil twilight17:5423:54

Current date and time
Zulu (UTC)  22-Jan-2018 04:02:04
Local (UTC-6)  21-Jan-2018 22:02:04
 
METAR
KGLY 
18nm E 
220355Z AUTO 17010KT 10SM BKN039 BKN048 14/14 A2961 RMK AO2 LTG DSNT NW
KLRY 
23nm NW 
220355Z AUTO 17007KT 10SM SCT019 SCT024 SCT120 15/12 A2959 RMK AO2 LTG DSNT NW
KRCM 
31nm N 
220335Z AUTO 14010KT 10SM BKN035 BKN048 BKN060 14/12 A2962 RMK AO2
KRAW 
33nm E 
220355Z AUTO 17010KT 10SM SCT050 A2964 RMK AO2 LTG DSNT S
KSZL 
35nm NE 
220356Z AUTO 16010KT 10SM FEW039 FEW047 14/13 A2957 RMK AO2 RAE11DZB11E17RAB17E27 SLP014 P0001 T01420132 $
TAF
KSZL 
35nm NE 
220202Z 2202/2301 16009KT 9999 BKN030 QNH2958INS BECMG 2202/2203 27012KT 8000 -SHRA BKN008 QNH2954INS BECMG 2212/2213 30012G20KT 6000 -RASN OVC015 QNH2958INS BECMG 2217/2218 31020G45KT 1600 SN OVC024 650243 530003 QNH2972INS TX16/2202Z TNM01/2216Z
NOTAMs
Click for the latest NOTAMs
NOTAMs are issued by the DoD/FAA and will open in a separate window not controlled by AirNav.

 

 
 

Would you like to see your business listed on this page?

 If your business provides an interesting product or service to pilots, flight crews, aircraft, or users of the Brownsberger Airport, you should consider listing it here.  To start the listing process, click on the button below
 
Add a business
 

Other Pages about Brownsberger Airport

Update a link
 
Copyright © AirNav, LLC. All rights reserved. Privacy Policy  Contact